Weather History for HESH - August, 2013

Change the Weather History Date:

Sunday, August 4, 2013

  Actual Average Record
Temperature  
Mean Temperature 93 °F -  
Max Temperature 104 °F - - ()
Min Temperature 82 °F - - ()
Cooling Degree Days 28    
Growing Degree Days 43 (Base 50)    
Moisture  
Dew Point 56 °F    
Average Humidity 32    
Maximum Humidity 66    
Minimum Humidity 16    
Precipitation  
Precipitation 0.00 in - - ()
Sea Level Pressure  
Sea Level Pressure 29.68 in    
Wind  
Wind Speed 9 mph ()    
Max Wind Speed 16 mph    
Max Gust Speed -    
T = Trace of Precipitation, MM = Missing Value Source: Averaged Metar Reports

Daily Weather History Graph

Daily Weather History Graph

Search for Another Location

Airport or City:

Trip Planner

Search our weather history database for the weather conditions in past years. The results will help you decide how hot, cold, wet, or windy it might be!

Date:

Astronomy

Aug. 04, 2013 Rise Set
Actual Time 5:06 AM EET 6:30 PM EET
Civil Twilight 4:41 AM EET 6:55 PM EET
Nautical Twilight 4:11 AM EET 7:25 PM EET
Astronomical Twilight 3:40 AM EET 7:56 PM EET
Moon 2:52 AM EET (8/4) 4:38 PM EET (8/4)
Length of Visible Light 14h 13m
Length of Day
13h 23m
Waning Crescent, 6% of the Moon is Illuminated
Aug 4
Waning Crescent
Aug 6
New
Aug 14
First Quarter
Aug 21
Full
Aug 28
Last Quarter

Hourly Weather History & Observations

Time (EET) Temp. Heat Index Dew Point Humidity Pressure Visibility Wind Dir Wind Speed Gust Speed Precip Events Conditions
12:00 AM 82.4 °F 86.3 °F 69.8 °F 66% 29.74 in - East 4.6 mph - N/A   Clear
1:00 AM 82.4 °F 86.3 °F 69.8 °F 66% 29.71 in - North 8.1 mph - N/A   Clear
2:00 AM 84.2 °F 85.6 °F 64.4 °F 51% 29.68 in - North 11.5 mph - N/A   Clear
3:00 AM 84.2 °F 85.0 °F 62.6 °F 48% 29.68 in - North 12.7 mph - N/A   Clear
4:00 AM 86.0 °F 85.4 °F 59.0 °F 40% 29.68 in - North 13.8 mph - N/A   Clear
5:00 AM 86.0 °F 84.9 °F 57.2 °F 37% 29.68 in - North 15.0 mph - N/A   Clear
6:00 AM 86.0 °F 84.9 °F 57.2 °F 37% 29.71 in - North 16.1 mph - N/A   Clear
7:00 AM 89.6 °F 88.1 °F 57.2 °F 33% 29.71 in - North 16.1 mph - N/A   Clear
8:00 AM 93.2 °F 92.6 °F 59.0 °F 32% 29.71 in - North 16.1 mph - N/A   Clear
9:00 AM 95.0 °F 93.7 °F 57.2 °F 28% 29.71 in - North 13.8 mph - N/A   Clear
10:00 AM 96.8 °F 96.2 °F 59.0 °F 28% 29.71 in - NNE 11.5 mph - N/A   Clear
12:00 PM 93.2 °F 91.3 °F 55.4 °F 28% 29.71 in - NE 10.4 mph - N/A   Clear
1:00 PM 100.4 °F 98.4 °F 53.6 °F 21% 29.68 in - NE 9.2 mph - N/A   Clear
2:00 PM 102.2 °F - 50.0 °F 17% 29.68 in - NE 9.2 mph - N/A   Clear
3:30 PM 104.0 °F - 50.0 °F 16% 29.65 in - NE 5.8 mph - N/A   Clear
4:00 PM 104.0 °F - 51.8 °F 17% 29.62 in - NE 6.9 mph - N/A   Clear
5:00 PM 100.4 °F - 51.8 °F 20% 29.62 in - NE 6.9 mph - N/A   Clear
6:00 PM 98.6 °F - 50.0 °F 19% 29.62 in - NNE 3.5 mph - N/A   Clear
7:00 PM 91.4 °F - 51.8 °F 26% 29.62 in - NNE 5.8 mph - N/A   Clear
8:00 PM 87.8 °F 85.7 °F 53.6 °F 31% 29.65 in - NW 2.3 mph - N/A   Clear
9:00 PM 87.8 °F - 48.2 °F 25% 29.65 in - NW 1.2 mph - N/A   Clear
10:00 PM 91.4 °F - 42.8 °F 18% 29.65 in - North 10.4 mph - N/A   Clear